User: anonymous   Login
Location: Unspecified
(0.0000°N, 0.0000°E)
Time: 18:58:42
(UTC+00:00)
Language:

TIANWANG 1C (TW-1C) - Orbit

View from above orbital plane
View from above orbital plane
View from above satellite
View from above satellite

Ground track
Ground track

The orbit data is extracted from the following two-line orbital elements,

1 40926U 15051B   17084.81232414 +.00010070 +00000-0 +24311-3 0  9990
2 40926 097.2408 125.0509 0014319 109.0916 338.5794 15.41277550084074
Epoch (UTC): 25 March 2017 19:29:44
Eccentricity: 0.0014319
inclination: 97.2408°
perigee height: 432 km
apogee height: 452 km
right ascension of ascending node: 125.0509°
argument of perigee: 109.0916°
revolutions per day: 15.41277550
mean anomaly at epoch: 338.5794°
orbit number at epoch: 8407

The dashed part of the orbit path shows where the satellite is in the earth's shadow,  

DLR